Location: Bottom School (historical)
(37.9078°N, 89.3593°W)
Time: 18:18:44
(UTC+00:00)

SL-4 R/B - Pass Details

Date: 04 July 2022
Orbit: 425 x 653 km, 51.6° (Epoch: 15 August)

Event Time Altitude Azimuth Distance (km) Brightness Sun altitude
Exits shadow 06:38:00 23° 357° (N) 1,023 4.0 -28.6°
Drops below altitude 10° 06:40:16 10° 31° (NNE) 1,649 5.3 -28.6°
Sets 06:42:46 0° 44° (NE) 2,575 6.3 -28.5°
